Location: Audinghen
(50.8518°N, 1.6129°E)
Time: 10:07:43
(UTC+00:00)

MOZ.5/SAFIR/RUBIN 5/SL-8 - Pass Details

Date: 07 August 2020
Orbit: 677 x 706 km, 98.1° (Epoch: 20 September)

Event Time Altitude Azimuth Distance (km) Brightness Sun altitude
Exits shadow 01:36:58 42° 208° (SSW) 1,005 4.1 -19.5°
Maximum altitude 01:38:16 56° 259° (W) 839 4.0 -19.4°
Drops below altitude 10° 01:42:58 10° 338° (NNW) 2,178 6.9 -19.1°
Sets 01:45:16 0° 343° (NNW) 3,096 7.9 -18.9°
